Time,TemperatureF,DewpointF,PressureIn,WindDirection,WindDirectionDegrees,WindSpeedMPH,WindSpeedGustMPH,Humidity,HourlyPrecipIn,Conditions,Clouds,dailyrainin,SoftwareType,DateUTC
2013-02-28 00:00:00,34.6,33.6,29.36,WSW,240,0.0,0.0,96,0.00,,,1.22,Wunderground v.1.15,2013-02-28 05:00:00,
2013-02-28 00:10:00,34.5,33.5,29.36,WSW,240,0.0,0.0,96,0.00,,,0.00,Wunderground v.1.15,2013-02-28 05:10:00,
2013-02-28 00:20:00,34.5,33.5,29.36,WSW,240,0.0,0.0,96,0.00,,,0.00,Wunderground v.1.15,2013-02-28 05:20:00,
2013-02-28 00:30:00,34.4,33.4,29.36,WSW,240,0.0,0.0,96,0.00,,,0.00,Wunderground v.1.15,2013-02-28 05:30:00,
2013-02-28 00:40:00,34.4,33.4,29.36,WSW,240,0.0,0.0,96,0.00,,,0.00,Wunderground v.1.15,2013-02-28 05:40:00,
2013-02-28 00:50:00,34.3,33.3,29.36,WSW,240,0.0,0.0,96,0.00,,,0.00,Wunderground v.1.15,2013-02-28 05:50:00,
2013-02-28 01:00:00,34.2,33.2,29.36,WSW,240,0.0,0.0,96,0.00,,,0.00,Wunderground v.1.15,2013-02-28 06:00:00,
2013-02-28 01:10:00,34.1,32.8,29.35,West,273,0.0,0.0,95,0.00,,,0.00,Wunderground v.1.15,2013-02-28 06:10:00,
2013-02-28 01:20:00,33.8,32.8,29.36,West,273,0.0,0.0,96,0.00,,,0.00,Wunderground v.1.15,2013-02-28 06:20:00,
2013-02-28 01:30:00,33.6,32.6,29.36,West,273,0.0,0.0,96,0.00,,,0.00,Wunderground v.1.15,2013-02-28 06:30:00,
2013-02-28 01:40:00,33.4,32.1,29.36,West,273,0.0,0.0,95,0.00,,,0.00,Wunderground v.1.15,2013-02-28 06:40:00,
2013-02-28 01:50:00,33.4,32.1,29.35,West,273,0.0,0.0,95,0.00,,,0.00,Wunderground v.1.15,2013-02-28 06:50:00,
2013-02-28 02:00:00,33.3,32.3,29.36,WSW,251,0.0,0.0,96,0.00,,,0.00,Wunderground v.1.15,2013-02-28 07:00:00,
2013-02-28 02:10:00,33.3,32.3,29.36,WSW,251,0.0,0.0,96,0.00,,,0.00,Wunderground v.1.15,2013-02-28 07:10:00,
2013-02-28 02:20:00,33.3,32.3,29.36,WSW,251,0.0,0.0,96,0.00,,,0.00,Wunderground v.1.15,2013-02-28 07:20:00,
2013-02-28 02:30:00,33.3,32.3,29.36,WSW,251,0.0,0.0,96,0.00,,,0.00,Wunderground v.1.15,2013-02-28 07:30:00,
2013-02-28 02:40:00,33.3,32.3,29.35,WSW,251,0.0,0.0,96,0.00,,,0.00,Wunderground v.1.15,2013-02-28 07:40:00,
2013-02-28 02:50:00,33.2,32.2,29.35,WSW,251,0.0,0.0,96,0.00,,,0.00,Wunderground v.1.15,2013-02-28 07:50:00,
2013-02-28 03:00:00,33.1,32.1,29.34,WSW,251,0.0,0.0,96,0.00,,,0.00,Wunderground v.1.15,2013-02-28 08:00:00,
2013-02-28 03:10:00,33.0,31.7,29.34,WSW,251,0.0,0.0,95,0.00,,,0.00,Wunderground v.1.15,2013-02-28 08:10:00,
2013-02-28 03:20:00,32.8,31.5,29.34,WSW,251,0.0,0.0,95,0.00,,,0.00,Wunderground v.1.15,2013-02-28 08:20:00,
2013-02-28 03:30:00,32.5,31.2,29.34,WSW,251,0.0,0.0,95,0.00,,,0.00,Wunderground v.1.15,2013-02-28 08:30:00,
2013-02-28 03:40:00,32.2,30.9,29.35,WSW,251,1.0,1.0,95,0.00,,,0.00,Wunderground v.1.15,2013-02-28 08:40:00,
2013-02-28 03:50:00,32.1,30.8,29.36,WSW,251,1.0,1.0,95,0.00,,,0.00,Wunderground v.1.15,2013-02-28 08:50:00,
2013-02-28 04:00:00,32.1,31.1,29.35,WSW,251,0.0,0.0,96,0.00,,,0.00,Wunderground v.1.15,2013-02-28 09:00:00,
2013-02-28 04:10:00,32.2,31.2,29.35,WSW,251,0.0,0.0,96,0.00,,,0.00,Wunderground v.1.15,2013-02-28 09:10:00,
2013-02-28 04:20:00,32.2,31.2,29.36,WSW,251,0.0,0.0,96,0.00,,,0.00,Wunderground v.1.15,2013-02-28 09:20:00,
2013-02-28 04:30:00,32.1,31.1,29.37,WSW,251,0.0,0.0,96,0.00,,,0.00,Wunderground v.1.15,2013-02-28 09:30:00,
2013-02-28 04:40:00,32.1,31.1,29.38,South,191,1.0,1.0,96,0.00,,,0.00,Wunderground v.1.15,2013-02-28 09:40:00,
2013-02-28 04:50:00,32.0,31.0,29.38,SSW,192,1.0,1.0,96,0.00,,,0.00,Wunderground v.1.15,2013-02-28 09:50:00,
2013-02-28 05:00:00,32.0,31.0,29.38,SSW,192,0.0,0.0,96,0.00,,,0.00,Wunderground v.1.15,2013-02-28 10:00:00,
2013-02-28 05:10:00,32.0,31.0,29.38,SW,225,1.0,1.0,96,0.00,,,0.00,Wunderground v.1.15,2013-02-28 10:10:00,
2013-02-28 05:20:00,31.9,30.9,29.37,SW,225,0.0,0.0,96,0.00,,,0.00,Wunderground v.1.15,2013-02-28 10:20:00,
2013-02-28 05:30:00,31.8,30.8,29.37,SW,225,0.0,0.0,96,0.00,,,0.00,Wunderground v.1.15,2013-02-28 10:30:00,
2013-02-28 05:40:00,31.7,30.7,29.38,SW,225,0.0,0.0,96,0.00,,,0.00,Wunderground v.1.15,2013-02-28 10:40:00,
2013-02-28 07:20:00,31.6,30.6,29.38,WNW,283,0.0,0.0,96,0.00,,,0.00,Wunderground v.1.15,2013-02-28 12:20:00,
2013-02-28 07:30:00,31.7,30.7,29.39,WNW,283,0.0,0.0,96,0.00,,,0.00,Wunderground v.1.15,2013-02-28 12:30:00,
2013-02-28 07:40:00,31.8,30.8,29.39,WNW,283,0.0,0.0,96,0.00,,,0.00,Wunderground v.1.15,2013-02-28 12:40:00,
2013-02-28 07:50:00,31.9,30.9,29.39,WNW,283,0.0,0.0,96,0.00,,,0.00,Wunderground v.1.15,2013-02-28 12:50:00,
2013-02-28 08:00:00,32.0,31.0,29.39,WNW,283,0.0,0.0,96,0.00,,,0.00,Wunderground v.1.15,2013-02-28 13:00:00,
2013-02-28 08:10:00,32.1,31.1,29.40,WNW,283,0.0,0.0,96,0.00,,,0.00,Wunderground v.1.15,2013-02-28 13:10:00,
2013-02-28 08:20:00,32.3,31.3,29.40,WNW,283,0.0,0.0,96,0.00,,,0.00,Wunderground v.1.15,2013-02-28 13:20:00,
2013-02-28 08:30:00,32.3,31.3,29.39,WNW,283,0.0,0.0,96,0.00,,,0.00,Wunderground v.1.15,2013-02-28 13:30:00,
2013-02-28 08:40:00,32.4,31.4,29.39,WNW,283,0.0,0.0,96,0.00,,,0.00,Wunderground v.1.15,2013-02-28 13:40:00,
2013-02-28 08:50:00,32.7,31.7,29.39,WNW,283,0.0,0.0,96,0.00,,,0.00,Wunderground v.1.15,2013-02-28 13:50:00,
2013-02-28 09:00:00,32.9,31.9,29.38,NNW,343,0.0,0.0,96,0.00,,,0.00,Wunderground v.1.15,2013-02-28 14:00:00,
2013-02-28 09:10:00,33.3,32.3,29.38,NNW,343,0.0,0.0,96,0.00,,,0.01,Wunderground v.1.15,2013-02-28 14:10:00,
2013-02-28 09:20:00,33.5,32.5,29.39,NNW,343,0.0,0.0,96,0.00,,,0.01,Wunderground v.1.15,2013-02-28 14:20:00,
2013-02-28 09:30:00,33.9,32.9,29.39,NNW,343,0.0,0.0,96,0.00,,,0.01,Wunderground v.1.15,2013-02-28 14:30:00,
2013-02-28 09:40:00,34.1,33.1,29.38,NNW,343,0.0,0.0,96,0.00,,,0.01,Wunderground v.1.15,2013-02-28 14:40:00,
2013-02-28 09:50:00,34.5,33.5,29.38,NNW,343,0.0,0.0,96,0.00,,,0.01,Wunderground v.1.15,2013-02-28 14:50:00,
2013-02-28 10:00:00,35.1,34.1,29.38,NNW,343,0.0,0.0,96,0.00,,,0.01,Wunderground v.1.15,2013-02-28 15:00:00,
2013-02-28 10:10:00,35.6,34.6,29.38,NNW,343,0.0,0.0,96,0.00,,,0.01,Wunderground v.1.15,2013-02-28 15:10:00,
2013-02-28 10:20:00,36.2,34.9,29.38,NNW,343,0.0,0.0,95,0.00,,,0.01,Wunderground v.1.15,2013-02-28 15:20:00,
2013-02-28 10:30:00,36.5,35.5,29.37,NNW,343,0.0,0.0,96,0.00,,,0.01,Wunderground v.1.15,2013-02-28 15:30:00,
2013-02-28 10:40:00,36.6,35.6,29.37,NNW,343,0.0,0.0,96,0.00,,,0.01,Wunderground v.1.15,2013-02-28 15:40:00,
2013-02-28 10:50:00,37.4,36.1,29.37,NNW,343,0.0,0.0,95,0.00,,,0.01,Wunderground v.1.15,2013-02-28 15:50:00,
2013-02-28 11:00:00,37.5,35.9,29.37,WSW,242,0.0,0.0,94,0.00,,,0.01,Wunderground v.1.15,2013-02-28 16:00:00,
2013-02-28 11:10:00,38.1,36.3,29.37,WNW,287,0.0,1.0,93,0.00,,,0.01,Wunderground v.1.15,2013-02-28 16:10:00,
2013-02-28 11:20:00,38.6,36.8,29.37,WNW,287,0.0,1.0,93,0.00,,,0.01,Wunderground v.1.15,2013-02-28 16:20:00,
2013-02-28 11:30:00,38.7,36.3,29.36,NW,305,0.0,0.0,91,0.00,,,0.01,Wunderground v.1.15,2013-02-28 16:30:00,
2013-02-28 11:40:00,38.8,36.4,29.36,NW,305,0.0,0.0,91,0.00,,,0.01,Wunderground v.1.15,2013-02-28 16:40:00,
2013-02-28 11:50:00,39.5,36.8,29.36,NW,305,0.0,0.0,90,0.00,,,0.01,Wunderground v.1.15,2013-02-28 16:50:00,
2013-02-28 12:00:00,39.7,36.7,29.35,NW,305,0.0,0.0,89,0.00,,,0.01,Wunderground v.1.15,2013-02-28 17:00:00,
2013-02-28 12:20:00,40.0,37.0,29.34,NNE,31,0.0,0.0,89,0.00,,,0.01,Wunderground v.1.15,2013-02-28 17:20:00,
2013-02-28 12:30:00,40.8,37.2,29.33,SE,144,0.0,0.0,87,0.00,,,0.01,Wunderground v.1.15,2013-02-28 17:30:00,
2013-02-28 12:40:00,41.0,37.1,29.33,SSE,149,0.0,0.0,86,0.00,,,0.01,Wunderground v.1.15,2013-02-28 17:40:00,
2013-02-28 12:50:00,42.5,38.0,29.33,SSW,211,0.0,3.0,84,0.00,,,0.01,Wunderground v.1.15,2013-02-28 17:50:00,
2013-02-28 13:20:00,42.7,37.3,29.32,ESE,115,1.0,1.0,81,0.00,,,0.01,Wunderground v.1.15,2013-02-28 18:20:00,
2013-02-28 13:30:00,42.5,37.1,29.32,SSW,192,2.0,2.0,81,0.00,,,0.01,Wunderground v.1.15,2013-02-28 18:30:00,
2013-02-28 13:40:00,41.9,36.8,29.32,NW,308,1.0,1.0,82,0.00,,,0.01,Wunderground v.1.15,2013-02-28 18:40:00,
2013-02-28 18:30:00,35.8,33.7,29.31,NNE,32,0.0,0.0,92,0.00,,,0.01,Wunderground v.1.15,2013-02-28 23:30:00,
2013-02-28 18:50:00,35.7,33.6,29.31,NNE,32,0.0,0.0,92,0.00,,,0.01,Wunderground v.1.15,2013-02-28 23:50:00,
2013-02-28 19:00:00,35.6,33.5,29.31,NNE,32,0.0,0.0,92,0.00,,,0.01,Wunderground v.1.15,2013-03-01 00:00:00,
2013-02-28 19:10:00,35.5,33.4,29.31,NNE,32,0.0,0.0,92,0.00,,,0.01,Wunderground v.1.15,2013-03-01 00:10:00,
2013-02-28 19:30:00,35.6,33.5,29.31,NNE,32,0.0,0.0,92,0.00,,,0.01,Wunderground v.1.15,2013-03-01 00:30:00,
2013-02-28 19:40:00,35.5,33.4,29.31,NNE,32,0.0,0.0,92,0.00,,,0.01,Wunderground v.1.15,2013-03-01 00:40:00,
2013-02-28 19:50:00,35.4,33.3,29.31,NNE,32,0.0,0.0,92,0.00,,,0.01,Wunderground v.1.15,2013-03-01 00:50:00,
2013-02-28 20:00:00,35.2,33.1,29.31,NNE,32,0.0,0.0,92,0.00,,,0.01,Wunderground v.1.15,2013-03-01 01:00:00,
2013-02-28 20:10:00,35.1,33.0,29.31,NNE,32,0.0,0.0,92,0.00,,,0.01,Wunderground v.1.15,2013-03-01 01:10:00,
2013-02-28 21:40:00,34.7,32.9,29.31,NNE,32,0.0,0.0,93,0.00,,,0.01,Wunderground v.1.15,2013-03-01 02:40:00,
2013-02-28 21:50:00,34.5,32.7,29.31,NNE,32,0.0,0.0,93,0.00,,,0.01,Wunderground v.1.15,2013-03-01 02:50:00,
2013-02-28 22:00:00,34.2,32.4,29.31,NNE,32,0.0,0.0,93,0.00,,,0.01,Wunderground v.1.15,2013-03-01 03:00:00,
2013-02-28 22:10:00,34.1,32.6,29.31,NNE,32,0.0,0.0,94,0.00,,,0.01,Wunderground v.1.15,2013-03-01 03:10:00,
2013-02-28 22:20:00,34.0,32.5,29.31,NNE,32,0.0,0.0,94,0.00,,,0.01,Wunderground v.1.15,2013-03-01 03:20:00,
2013-02-28 22:30:00,33.9,32.4,29.31,NNE,32,0.0,0.0,94,0.00,,,0.01,Wunderground v.1.15,2013-03-01 03:30:00,
2013-02-28 22:40:00,33.9,32.4,29.31,NNE,32,0.0,0.0,94,0.00,,,0.01,Wunderground v.1.15,2013-03-01 03:40:00,
2013-02-28 22:50:00,33.9,32.4,29.31,NNE,32,0.0,0.0,94,0.00,,,0.01,Wunderground v.1.15,2013-03-01 03:50:00,
2013-02-28 23:00:00,33.9,32.4,29.31,NNE,32,0.0,0.0,94,0.00,,,0.01,Wunderground v.1.15,2013-03-01 04:00:00,
2013-02-28 23:10:00,34.0,32.5,29.31,NNE,32,0.0,0.0,94,0.00,,,0.01,Wunderground v.1.15,2013-03-01 04:10:00,
2013-02-28 23:20:00,33.9,32.4,29.31,NNE,32,0.0,0.0,94,0.00,,,0.01,Wunderground v.1.15,2013-03-01 04:20:00,
2013-02-28 23:30:00,33.8,32.3,29.30,West,260,0.0,0.0,94,0.00,,,0.01,Wunderground v.1.15,2013-03-01 04:30:00,
2013-02-28 23:40:00,33.8,32.3,29.30,West,260,0.0,0.0,94,0.00,,,0.01,Wunderground v.1.15,2013-03-01 04:40:00,